OBJECT CL, 62691

Orbit data source: Space-Track

You're viewing an Uncataloged Satellite

Recently launched and/or uncataloged satellites may have evolving metadata. Metadata may include but not limited to: Owner, Maufacturer, Bus, Motor, and Mission.

OBJECT CL, 62691 is a satellite in SSO that was launched on Tue, 14 Jan 2025 UTC via an FALCON 9 launch vehicle from the Air Force Western Test Range (AFWTR). Unknown objects in Earth's orbit typically refer to objects detected orbiting the Earth but have not yet been identified or cataloged. These objects could be anything from previously untracked satellites, spent rocket stages, debris from satellite collisions, or even natural meteoroids temporarily captured by Earth's gravity.

Loading next visibility...
Identifier
62691, 2025-009CL
Orbit
SSO
Country
Flag of TBDTBD
Related business
None
Manufacturer
Unknown
Mission
Operational Amateur Technology
Bus & Motor
Unknown
Mass
Unknown
Launch date (UTC)
2025-01-14 (1 year ago)
Launch vehicle
FALCON 9
Launch site
Air Force Western Test Range (AFWTR)
Object type
Unknown
Shape & HBR
Box, 0.1 m
Radar Cross Section
0.004 m², Medium (>0.1 m² and < 1m²)

Expand to show TLE details & history
Last TLE update: 8 hours ago

TLE from 8 hours ago
0 OBJECT CL
1 62691U 25009CL  26151.21199497  .00055514  00000-0  11864-2 0  9999
2 62691  97.3776 236.1051 0001357 239.4729 120.6386 15.44654581 76579
Epoch: 2026-05-31T05:05Z
TLE epoch observation values (Epoch: 2026-05-31T05:05:16.365Z)
Latitude
0.00001°
Longitude
-88.93001°
Altitude
435.989 km
Speed
7.65 km/s
True Right ascension
15h 44m 25s
True Declination
0° 00' 00"
Sunlit
Object was in full shadow at epoch
Visualization orbit readout
Latitude
Unknown
Longitude
Unknown
Altitude
Unknown
Speed
Unknown
Apparent Right ascension
Unknown
Apparent Declination
Unknown
Sunlit
N/A
Visualization observer readout
Local Sidereal Time
22:17:31
Azimuth
Unknown
Elevation
Unknown
Doppler factor
Unknown
Orbital elements
Apogee altitude
430.249 km
Perigee altitude
428.401 km
Semi-major axis
6,807.462 km
Eccentricity
0.00014
Inclination
97.3776°
RAAN
236.1051°
Arg. of periapsis
239.4729°
True anomaly
120.65198°
Mean anomaly
120.6386°
Eccentric anomaly
120.64529°
Mean motion
3.86425 °/min
Orbital period
93.16 mins
BSTAR
0.0011864
Loading maneuver chart data...
Computing Atmospheric mass density...
Loading historical data...
Loading historical data...
Loading historical data...
Loading historical data...
Loading historical data...
Loading historical data...
Loading historical data...

Documentation

Showing up to 5 results
|